Location: Vancouver
(49.2500°N, 123.1330°W)
Time: 18:51:08
(UTC-07:00)

Oscar 11 - Visible Passes

Search period start: 22 June 2017 00:00
Search period end: 02 July 2017 00:00
Orbit: 614 x 626 km, 97.7° (Epoch: 21 June)

Date Brightness Start Highest point End Pass type
(mag) Time Alt. Az. Time Alt. Az. Time Alt. Az.
25 Jun 9.4 22:11:23 10° SW 22:14:43 21° W 22:18:04 10° NW visible
26 Jun 9.7 22:29:44 10° WSW 22:32:13 15° W 22:34:42 10° NW visible
30 Jun 9.1 22:01:25 10° SSW 22:05:03 26° W 22:08:42 10° NW visible
01 Jul 9.6 22:19:32 10° SW 22:22:31 18° W 22:25:30 10° NW visible
